Time,TemperatureF,DewpointF,PressureIn,WindDirection,WindDirectionDegrees,WindSpeedMPH,WindSpeedGustMPH,Humidity,HourlyPrecipIn,Conditions,Clouds,dailyrainin,SolarRadiationWatts/m^2,SoftwareType,DateUTC
2013-01-16 00:01:00,35.0,34.0,-100.00,East,100,0.0,3.0,96,0.04,,,0.21,0.000000,,2013-01-16 05:01:00,
2013-01-16 00:33:00,35.0,34.0,-100.00,East,100,0.0,3.0,96,0.04,,,0.21,0.000000,,2013-01-16 05:33:00,
2013-01-16 00:42:00,35.0,34.0,-100.00,East,100,0.0,3.0,96,0.04,,,0.21,0.000000,,2013-01-16 05:42:00,
2013-01-16 00:53:00,35.0,34.0,-100.00,East,100,0.0,3.0,96,0.04,,,0.21,0.000000,,2013-01-16 05:53:00,
2013-01-16 01:01:00,34.0,33.0,-100.00,ESE,108,1.0,5.0,97,0.02,,,0.21,0.000000,,2013-01-16 06:01:00,
2013-01-16 01:22:00,34.0,33.0,-100.00,ESE,108,1.0,5.0,97,0.02,,,0.21,0.000000,,2013-01-16 06:22:00,
2013-01-16 01:33:00,34.0,33.0,-100.00,ESE,108,1.0,5.0,97,0.02,,,0.21,0.000000,,2013-01-16 06:33:00,
2013-01-16 01:43:00,34.0,33.0,-100.00,ESE,108,1.0,5.0,97,0.02,,,0.21,0.000000,,2013-01-16 06:43:00,
2013-01-16 01:53:00,34.0,33.0,-100.00,ESE,108,1.0,5.0,97,0.02,,,0.21,0.000000,,2013-01-16 06:53:00,
2013-01-16 02:01:00,34.0,34.0,-100.00,ESE,117,1.0,6.0,98,0.04,,,0.23,0.000000,,2013-01-16 07:01:00,
2013-01-16 02:22:00,34.0,34.0,-100.00,ESE,117,1.0,6.0,98,0.04,,,0.23,0.000000,,2013-01-16 07:22:00,
2013-01-16 02:33:00,34.0,34.0,-100.00,ESE,117,1.0,6.0,98,0.04,,,0.23,0.000000,,2013-01-16 07:33:00,
2013-01-16 02:42:00,34.0,34.0,-100.00,ESE,117,1.0,6.0,98,0.04,,,0.23,0.000000,,2013-01-16 07:42:00,
2013-01-16 02:52:00,34.0,34.0,-100.00,ESE,117,1.0,6.0,98,0.04,,,0.23,0.000000,,2013-01-16 07:52:00,
2013-01-16 03:01:00,34.0,34.0,-100.00,ESE,121,2.0,9.0,99,0.05,,,0.23,0.000000,,2013-01-16 08:01:00,
2013-01-16 03:23:00,34.0,34.0,-100.00,ESE,121,2.0,9.0,99,0.05,,,0.23,0.000000,,2013-01-16 08:23:00,
2013-01-16 03:33:00,34.0,34.0,-100.00,ESE,121,2.0,9.0,99,0.05,,,0.23,0.000000,,2013-01-16 08:33:00,
2013-01-16 03:42:00,34.0,34.0,-100.00,ESE,121,2.0,9.0,99,0.05,,,0.23,0.000000,,2013-01-16 08:42:00,
2013-01-16 03:53:00,34.0,34.0,-100.00,ESE,121,2.0,9.0,99,0.05,,,0.23,0.000000,,2013-01-16 08:53:00,
2013-01-16 04:01:00,34.0,34.0,-100.00,SE,129,2.0,8.0,99,0.10,,,0.27,0.000000,,2013-01-16 09:01:00,
2013-01-16 04:33:00,34.0,34.0,-100.00,SE,129,2.0,8.0,99,0.10,,,0.27,0.000000,,2013-01-16 09:33:00,
2013-01-16 04:43:00,34.0,34.0,-100.00,SE,129,2.0,8.0,99,0.10,,,0.27,0.000000,,2013-01-16 09:43:00,
2013-01-16 04:53:00,34.0,34.0,-100.00,SE,129,2.0,8.0,99,0.10,,,0.27,0.000000,,2013-01-16 09:53:00,
2013-01-16 05:01:00,34.0,34.0,-100.00,ESE,122,2.0,7.0,99,0.16,,,0.41,0.000000,,2013-01-16 10:01:00,
2013-01-16 05:33:00,34.0,34.0,-100.00,ESE,122,2.0,7.0,99,0.16,,,0.41,0.000000,,2013-01-16 10:33:00,
2013-01-16 05:43:00,34.0,34.0,-100.00,ESE,122,2.0,7.0,99,0.16,,,0.41,0.000000,,2013-01-16 10:43:00,
2013-01-16 05:53:00,34.0,34.0,-100.00,ESE,122,2.0,7.0,99,0.16,,,0.41,0.000000,,2013-01-16 10:53:00,
2013-01-16 06:01:00,34.0,34.0,-100.00,ESE,116,2.0,9.0,99,0.18,,,0.59,0.000000,,2013-01-16 11:01:00,
2013-01-16 06:33:00,34.0,34.0,-100.00,ESE,116,2.0,9.0,99,0.18,,,0.59,0.000000,,2013-01-16 11:33:00,
2013-01-16 06:43:00,34.0,34.0,-100.00,ESE,116,2.0,9.0,99,0.18,,,0.59,0.000000,,2013-01-16 11:43:00,
2013-01-16 06:53:00,34.0,34.0,-100.00,ESE,116,2.0,9.0,99,0.18,,,0.59,0.000000,,2013-01-16 11:53:00,
2013-01-16 07:01:00,34.0,34.0,-100.00,SE,143,2.0,7.0,100,0.11,,,0.70,0.000000,,2013-01-16 12:01:00,
2013-01-16 07:33:00,34.0,34.0,-100.00,SE,143,2.0,7.0,100,0.11,,,0.70,0.000000,,2013-01-16 12:33:00,
2013-01-16 07:43:00,34.0,34.0,-100.00,SE,143,2.0,7.0,100,0.11,,,0.70,0.000000,,2013-01-16 12:43:00,
2013-01-16 07:53:00,34.0,34.0,-100.00,SE,143,2.0,7.0,100,0.11,,,0.70,0.000000,,2013-01-16 12:53:00,
2013-01-16 08:01:00,34.0,34.0,-100.00,SE,139,1.0,8.0,100,0.11,,,0.81,2.000000,,2013-01-16 13:01:00,
2013-01-16 08:33:00,34.0,34.0,-100.00,SE,139,1.0,8.0,100,0.11,,,0.81,2.000000,,2013-01-16 13:33:00,
2013-01-16 08:43:00,34.0,34.0,-100.00,SE,139,1.0,8.0,100,0.11,,,0.81,2.000000,,2013-01-16 13:43:00,
2013-01-16 08:53:00,34.0,34.0,-100.00,SE,139,1.0,8.0,100,0.11,,,0.81,2.000000,,2013-01-16 13:53:00,
2013-01-16 09:01:00,35.0,35.0,-100.00,SE,132,2.0,6.0,100,0.06,,,0.87,15.000000,,2013-01-16 14:01:00,
2013-01-16 09:33:00,35.0,35.0,-100.00,SE,132,2.0,6.0,100,0.06,,,0.87,15.000000,,2013-01-16 14:33:00,
2013-01-16 09:43:00,35.0,35.0,-100.00,SE,132,2.0,6.0,100,0.06,,,0.87,15.000000,,2013-01-16 14:43:00,
2013-01-16 09:53:00,35.0,35.0,-100.00,SE,132,2.0,6.0,100,0.06,,,0.87,15.000000,,2013-01-16 14:53:00,
2013-01-16 10:01:00,36.0,36.0,-100.00,SSE,164,3.0,8.0,100,0.01,,,0.88,35.000000,,2013-01-16 15:01:00,
2013-01-16 10:33:00,36.0,36.0,-100.00,SSE,164,3.0,8.0,100,0.01,,,0.88,35.000000,,2013-01-16 15:33:00,
2013-01-16 10:43:00,36.0,36.0,-100.00,SSE,164,3.0,8.0,100,0.01,,,0.88,35.000000,,2013-01-16 15:43:00,
2013-01-16 10:53:00,36.0,36.0,-100.00,SSE,164,3.0,8.0,100,0.01,,,0.88,35.000000,,2013-01-16 15:53:00,
2013-01-16 11:01:00,37.0,37.0,-100.00,ESE,106,1.0,6.0,100,0.01,,,0.89,29.000000,,2013-01-16 16:01:00,
2013-01-16 11:33:00,37.0,37.0,-100.00,ESE,106,1.0,6.0,100,0.01,,,0.89,29.000000,,2013-01-16 16:33:00,
2013-01-16 11:43:00,37.0,37.0,-100.00,ESE,106,1.0,6.0,100,0.01,,,0.89,29.000000,,2013-01-16 16:43:00,
2013-01-16 11:53:00,37.0,37.0,-100.00,ESE,106,1.0,6.0,100,0.01,,,0.89,29.000000,,2013-01-16 16:53:00,
2013-01-16 12:01:00,38.0,38.0,-100.00,East,91,1.0,6.0,100,0.04,,,0.93,22.000000,,2013-01-16 17:01:00,
2013-01-16 12:33:00,38.0,38.0,-100.00,East,91,1.0,6.0,100,0.04,,,0.93,22.000000,,2013-01-16 17:33:00,
2013-01-16 12:44:00,38.0,38.0,-100.00,East,91,1.0,6.0,100,0.04,,,0.93,22.000000,,2013-01-16 17:44:00,
2013-01-16 12:53:00,38.0,38.0,-100.00,East,91,1.0,6.0,100,0.04,,,0.93,22.000000,,2013-01-16 17:53:00,
2013-01-16 13:01:00,37.0,37.0,-100.00,East,100,1.0,8.0,100,0.01,,,0.94,25.000000,,2013-01-16 18:01:00,
2013-01-16 13:33:00,37.0,37.0,-100.00,East,100,1.0,8.0,100,0.01,,,0.94,25.000000,,2013-01-16 18:33:00,
2013-01-16 13:43:00,37.0,37.0,-100.00,East,100,1.0,8.0,100,0.01,,,0.94,25.000000,,2013-01-16 18:43:00,
2013-01-16 13:53:00,37.0,37.0,-100.00,East,100,1.0,8.0,100,0.01,,,0.94,25.000000,,2013-01-16 18:53:00,
2013-01-16 14:01:00,38.0,38.0,-100.00,South,172,2.0,6.0,100,0.02,,,0.96,28.000000,,2013-01-16 19:01:00,
2013-01-16 14:33:00,38.0,38.0,-100.00,South,172,2.0,6.0,100,0.02,,,0.96,28.000000,,2013-01-16 19:33:00,
2013-01-16 14:43:00,38.0,38.0,-100.00,South,172,2.0,6.0,100,0.02,,,0.96,28.000000,,2013-01-16 19:43:00,
2013-01-16 14:53:00,38.0,38.0,-100.00,South,172,2.0,6.0,100,0.02,,,0.96,28.000000,,2013-01-16 19:53:00,
2013-01-16 15:01:00,37.0,37.0,-100.00,East,80,2.0,10.0,100,0.00,,,0.96,23.000000,,2013-01-16 20:01:00,
2013-01-16 15:23:00,37.0,37.0,-100.00,East,80,2.0,10.0,100,0.00,,,0.96,23.000000,,2013-01-16 20:23:00,
2013-01-16 15:33:00,37.0,37.0,-100.00,East,80,2.0,10.0,100,0.00,,,0.96,23.000000,,2013-01-16 20:33:00,
2013-01-16 15:43:00,37.0,37.0,-100.00,East,80,2.0,10.0,100,0.00,,,0.96,23.000000,,2013-01-16 20:43:00,
2013-01-16 15:53:00,37.0,37.0,-100.00,East,80,2.0,10.0,100,0.00,,,0.96,23.000000,,2013-01-16 20:53:00,
2013-01-16 16:01:00,35.0,35.0,-100.00,East,87,2.0,11.0,100,0.01,,,0.97,8.000000,,2013-01-16 21:01:00,
2013-01-16 16:33:00,35.0,35.0,-100.00,East,87,2.0,11.0,100,0.01,,,0.97,8.000000,,2013-01-16 21:33:00,
2013-01-16 16:43:00,35.0,35.0,-100.00,East,87,2.0,11.0,100,0.01,,,0.97,8.000000,,2013-01-16 21:43:00,
2013-01-16 16:53:00,35.0,35.0,-100.00,East,87,2.0,11.0,100,0.01,,,0.97,8.000000,,2013-01-16 21:53:00,
2013-01-16 17:01:00,35.0,35.0,-100.00,East,92,1.0,6.0,100,0.00,,,0.97,3.000000,,2013-01-16 22:01:00,
2013-01-16 17:23:00,35.0,35.0,-100.00,East,92,1.0,6.0,100,0.00,,,0.97,3.000000,,2013-01-16 22:23:00,
2013-01-16 17:33:00,35.0,35.0,-100.00,East,92,1.0,6.0,100,0.00,,,0.97,3.000000,,2013-01-16 22:33:00,
2013-01-16 17:43:00,35.0,35.0,-100.00,East,92,1.0,6.0,100,0.00,,,0.97,3.000000,,2013-01-16 22:43:00,
2013-01-16 17:53:00,35.0,35.0,-100.00,East,92,1.0,6.0,100,0.00,,,0.97,3.000000,,2013-01-16 22:53:00,
2013-01-16 18:01:00,36.0,36.0,-100.00,NNE,14,1.0,6.0,100,0.00,,,0.97,0.000000,,2013-01-16 23:01:00,
2013-01-16 18:33:00,36.0,36.0,-100.00,NNE,14,1.0,6.0,100,0.00,,,0.97,0.000000,,2013-01-16 23:33:00,
2013-01-16 18:43:00,36.0,36.0,-100.00,NNE,14,1.0,6.0,100,0.00,,,0.97,0.000000,,2013-01-16 23:43:00,
2013-01-16 18:53:00,36.0,36.0,-100.00,NNE,14,1.0,6.0,100,0.00,,,0.97,0.000000,,2013-01-16 23:53:00,
2013-01-16 19:01:00,36.0,36.0,-100.00,NW,325,1.0,6.0,100,0.00,,,-99.99,0.000000,,2013-01-17 00:01:00,
2013-01-16 19:33:00,36.0,36.0,-100.00,NW,325,1.0,6.0,100,0.00,,,-99.99,0.000000,,2013-01-17 00:33:00,
2013-01-16 19:42:00,36.0,36.0,-100.00,NW,325,1.0,6.0,100,0.00,,,-99.99,0.000000,,2013-01-17 00:42:00,
2013-01-16 19:53:00,36.0,36.0,-100.00,NW,325,1.0,6.0,100,0.00,,,-99.99,0.000000,,2013-01-17 00:53:00,
2013-01-16 20:01:00,36.0,36.0,-100.00,NNW,330,3.0,8.0,100,0.00,,,0.97,0.000000,,2013-01-17 01:01:00,
2013-01-16 20:22:00,36.0,36.0,-100.00,NNW,330,3.0,8.0,100,0.00,,,0.97,0.000000,,2013-01-17 01:22:00,
2013-01-16 20:33:00,36.0,36.0,-100.00,NNW,330,3.0,8.0,100,0.00,,,0.97,0.000000,,2013-01-17 01:33:00,
2013-01-16 20:43:00,36.0,36.0,-100.00,NNW,330,3.0,8.0,100,0.00,,,0.97,0.000000,,2013-01-17 01:43:00,
2013-01-16 20:53:00,36.0,36.0,-100.00,NNW,330,3.0,8.0,100,0.00,,,0.97,0.000000,,2013-01-17 01:53:00,
2013-01-16 21:01:00,36.0,36.0,-100.00,North,9,2.0,10.0,100,0.00,,,0.97,0.000000,,2013-01-17 02:01:00,
2013-01-16 21:32:00,36.0,36.0,-100.00,North,9,2.0,10.0,100,0.00,,,0.97,0.000000,,2013-01-17 02:32:00,
2013-01-16 21:43:00,36.0,36.0,-100.00,North,9,2.0,10.0,100,0.00,,,0.97,0.000000,,2013-01-17 02:43:00,
2013-01-16 21:52:00,36.0,36.0,-100.00,North,9,2.0,10.0,100,0.00,,,0.97,0.000000,,2013-01-17 02:52:00,
2013-01-16 22:01:00,36.0,36.0,-100.00,North,358,2.0,7.0,100,0.00,,,0.97,0.000000,,2013-01-17 03:01:00,
2013-01-16 22:33:00,36.0,36.0,-100.00,North,358,2.0,7.0,100,0.00,,,0.97,0.000000,,2013-01-17 03:33:00,
2013-01-16 22:43:00,36.0,36.0,-100.00,North,358,2.0,7.0,100,0.00,,,0.97,0.000000,,2013-01-17 03:43:00,
2013-01-16 22:53:00,36.0,36.0,-100.00,North,358,2.0,7.0,100,0.00,,,0.97,0.000000,,2013-01-17 03:53:00,
2013-01-16 23:01:00,36.0,36.0,-100.00,North,358,1.0,6.0,100,0.00,,,0.97,0.000000,,2013-01-17 04:01:00,
2013-01-16 23:33:00,36.0,36.0,-100.00,North,358,1.0,6.0,100,0.00,,,0.97,0.000000,,2013-01-17 04:33:00,
2013-01-16 23:43:00,36.0,36.0,-100.00,North,358,1.0,6.0,100,0.00,,,0.97,0.000000,,2013-01-17 04:43:00,
2013-01-16 23:53:00,36.0,36.0,-100.00,North,358,1.0,6.0,100,0.00,,,0.97,0.000000,,2013-01-17 04:53:00,